sat.trackr.live / text

‹ back to catalog

STARLINK-36831

NORAD 67864 · 2026-034Q

PAYLOAD ACTIVE UNKNOWN

§ Identity

Operator
Country
US
Launch date
2026-02-20
Launch site
AFETR
Launch vehicle
Mass (kg)
RCS (m²)

Purposes: comms

External: N2YO · Heavens-Above · Gunter

§ Orbital elements

Epoch: 2026-05-25T04:10:06.896352Z

Period
94.10 min
Inclination
53.1593°
Eccentricity
0.0001506
Mean motion
15.30219353 rev/d
Perigee alt
474.1 km
Apogee alt
476.2 km
Semi-major
6,853.3 km
B*
1.0972e-3
RAAN
209.1284°
Arg perigee
79.1595°
Mean anomaly
280.9575°
Rev number
1,574

§ Raw data

STARLINK-368311 67864U 26034Q   26145.17369093  .00032296  00000+0  10972-2 0  99942 67864  53.1593 209.1284 0001506  79.1595 280.9575 15.30219353 15748

JSON: /api/v1/satellites/67864 · /tle

For live sub-satellite position, see the globe view (requires WebGL).

§ Visibility from observer

Set your observer location to see the next 7 days of passes ≥ 10°. The values pass through the URL so the page stays shareable.

No JS? Fill the form by hand. The geolocation button needs JavaScript.